Temp
-7 -7 -7 -7 -6 -6 -6 -6 -5 -2 -0 3 4 4 4 7 7 9 10 10 10 10 12 12 12 9 9 9 8 10 9 11 12 12 12 12 12 12
-7 -7 -7 -6 -6 -6 -6 -6 -5 -4 1 6 5 4 6 7 8 9 9 9 10 10 12 12 12 9 9 8 9 10 11 11 12 12 12 12 12 12
-7 -7 -6 -6 -6 -5 -5 -4 -3 -3 -1 6 6 5 7 8 9 9 9 10 10 11 12 12 12 11 9 9 10 10 11 11 11 12 12 12 12 12
-6 -6 -5 -4 -4 -4 -3 -1 -1 -0 1 5 6 8 8 9 9 9 10 9 10 11 11 12 12 12 9 9 9 10 10 10 11 12 12 12 12 12
-7 -6 -5 -3 -2 -1 -1 -1 1 2 5 7 7 9 8 9 8 9 9 10 10 10 11 12 12 12 9 8 9 9 9 9 10 12 12 12 12 12
-7 -6 -4 -1 0 1 1 3 4 5 7 8 8 8 8 8 8 9 9 9 9 9 10 11 11 10 8 8 8 8 8 8 9 10 12 11 11 12
-5 -4 -3 0 3 4 4 5 6 7 7 8 8 8 8 8 9 9 9 10 9 8 8 8 8 8 8 8 8 8 8 8 8 8 10 10 11 11
-4 -2 1 3 3 5 5 6 7 8 7 7 8 8 8 9 9 9 9 9 8 8 8 8 7 8 8 8 8 8 8 8 7 7 8 8 10 11
-4 -3 -0 1 4 5 6 7 7 8 9 8 9 8 9 9 8 8 9 8 8 8 8 8 8 8 8 7 8 8 8 8 7 7 8 8 9 9
-3 -2 0 3 4 6 6 7 7 7 7 9 9 8 9 8 8 9 9 9 8 8 8 8 8 7 7 7 7 7 6 7 7 7 7 7 7 7
-3 -2 0 3 4 5 6 7 7 6 7 7 8 8 8 7 8 9 9 9 8 8 8 8 7 7 7 6 7 7 7 6 6 7 7 7 7 7
-2 -1 0 1 4 5 6 7 7 5 6 7 7 7 7 8 8 8 9 8 8 8 7 8 7 7 7 6 7 7 7 7 7 7 8 8 8 7
-1 -2 -1 1 3 4 4 4 5 5 7 8 8 8 7 8 8 8 8 10 8 7 7 8 7 7 7 6 7 7 7 7 7 8 8 8 8 8
-1 -2 -0 2 2 2 3 3 3 3 4 5 6 7 7 7 7 8 9 9 8 8 8 8 8 8 8 7 7 7 7 8 8 8 8 8 8 8
-0 -0 1 2 2 3 3 3 2 2 2 3 3 3 5 5 6 8 8 8 8 8 8 8 8 8 8 8 7 6 6 6 7 8 8 8 9 8
0 0 1 1 2 1 2 3 3 3 2 1 1 1 1 3 6 6 7 8 8 7 7 7 8 8 8 8 7 6 5 5 4 6 6 7 7 6
1 2 1 1 1 1 1 0 0 1 2 2 3 3 4 4 4 5 5 5 7 4 5 6 7 7 7 5 5 3 3 3 2 2 2 3 3 2
2 1 0 0 1 1 0 0 0 1 1 1 2 2 3 3 3 3 3 4 4 2 2 0 0 1 1 1 -1 -2 -2 -2 -2 -2 -1 0 -1 -1
1 0 -0 -1 -0 -0 0 0 0 -1 -0 0 1 1 1 1 2 3 3 3 2 1 1 1 0 1 1 -2 -3 -2 -3 -3 -2 -2 -2 -1 -1 -2
-0 -1 -1 -1 -1 -1 -0 -0 -0 0 0 0 0 -0 0 0 0 0 1 1 1 0 -0 -0 -0 -0 -0 -1 -2 -4 -3 -3 -3 -3 -2 -3 -3 -4
-1 -1 -1 -1 -1 -1 -1 -1 -1 -1 -0 -0 -0 -0 0 0 -0 -0 -1 -1 -1 -1 -1 -2 -2 -2 -2 -2 -2 -5 -5 -5 -4 -4 -4 -5 -5 -5
-1 -1 -1 -1 -1 -2 -2 -1 -1 -1 -2 -1 -1 -1 -1 -1 -1 -1 -1 -1 -1 -1 -1 -2 -2 -2 -2 -2 -3 -3 -4 -4 -4 -4 -4 -4 -3 -4
-1 -1 -1 -1 -1 -2 -2 -1 -1 -1 -1 -1 -2 -2 -1 -2 -2 -1 -1 -1 -2 -2 -2 -2 -3 -3 -3 -3 -3 -3 -4 -4 -4 -4 -4 -4 -4 -4
Height
1385 1381 1378 1376 1376 1376 1379 1381 1384 1382 1381 1381 1385 1390 1395 1401 1410 1418 1432 1447 1460 1477 1489 1498 1507 1517 1526 1535 1543 1550 1558 1564 1571 1576 1583 1589 1594 1599
1378 1373 1368 1366 1365 1367 1370 1373 1376 1378 1377 1378 1382 1387 1391 1400 1407 1421 1435 1450 1466 1479 1490 1499 1509 1518 1527 1537 1544 1552 1559 1566 1573 1579 1585 1591 1596 1601
1372 1365 1359 1356 1356 1359 1364 1368 1370 1372 1372 1379 1382 1386 1393 1400 1411 1426 1441 1455 1471 1484 1494 1503 1512 1521 1530 1539 1546 1554 1561 1568 1575 1581 1587 1593 1598 1603
1367 1359 1354 1352 1353 1356 1360 1364 1367 1370 1372 1379 1382 1386 1393 1404 1417 1428 1443 1460 1474 1488 1498 1508 1516 1524 1533 1542 1548 1555 1563 1571 1577 1583 1588 1594 1600 1604
1368 1359 1355 1353 1354 1357 1360 1364 1367 1368 1374 1377 1380 1385 1399 1412 1425 1434 1449 1465 1480 1493 1504 1513 1521 1528 1537 1544 1551 1558 1566 1572 1579 1584 1589 1595 1600 1604
1368 1361 1358 1358 1358 1359 1364 1368 1370 1374 1376 1381 1389 1395 1406 1420 1431 1437 1454 1470 1482 1496 1507 1517 1525 1533 1541 1547 1555 1562 1569 1574 1580 1585 1590 1596 1601 1605
1371 1365 1362 1363 1364 1365 1371 1369 1371 1375 1382 1386 1394 1404 1417 1426 1436 1448 1458 1472 1486 1497 1508 1518 1528 1538 1546 1553 1559 1566 1571 1577 1581 1586 1591 1597 1601 1604
1377 1372 1371 1372 1373 1375 1376 1381 1381 1386 1390 1397 1406 1411 1420 1434 1448 1452 1461 1472 1484 1501 1509 1522 1531 1540 1547 1555 1561 1568 1573 1578 1583 1587 1592 1597 1601 1604
1389 1385 1383 1383 1382 1385 1387 1391 1396 1400 1405 1407 1414 1424 1433 1444 1449 1459 1468 1476 1485 1500 1510 1521 1529 1536 1546 1554 1563 1569 1574 1579 1584 1588 1593 1597 1600 1604
1399 1395 1391 1391 1392 1396 1399 1401 1404 1410 1416 1418 1426 1434 1441 1446 1454 1461 1468 1479 1494 1504 1511 1517 1529 1537 1547 1555 1562 1568 1573 1578 1582 1587 1592 1596 1600 1603
1410 1408 1405 1404 1405 1405 1408 1411 1415 1418 1424 1431 1435 1441 1448 1456 1463 1467 1476 1483 1493 1502 1515 1520 1529 1539 1547 1554 1561 1568 1572 1577 1581 1586 1590 1595 1598 1601
1421 1419 1418 1416 1416 1417 1419 1422 1425 1429 1433 1439 1443 1446 1451 1460 1468 1478 1483 1487 1496 1507 1517 1524 1532 1541 1548 1555 1561 1566 1570 1576 1581 1585 1589 1593 1597 1597
1435 1432 1432 1432 1428 1428 1428 1430 1434 1438 1441 1444 1448 1453 1459 1467 1474 1481 1486 1496 1503 1509 1519 1526 1532 1540 1545 1552 1560 1565 1570 1575 1580 1583 1587 1591 1593 1597
1451 1450 1448 1447 1444 1442 1440 1444 1445 1446 1448 1450 1454 1460 1467 1472 1478 1485 1492 1501 1510 1516 1524 1532 1536 1543 1546 1552 1558 1564 1569 1573 1577 1580 1583 1587 1590 1593
1470 1468 1464 1460 1457 1454 1456 1458 1457 1457 1457 1459 1464 1468 1474 1479 1483 1488 1496 1506 1515 1523 1529 1537 1544 1547 1552 1554 1555 1562 1567 1570 1573 1576 1579 1582 1585 1587
1487 1483 1481 1477 1475 1475 1471 1471 1471 1471 1470 1473 1477 1482 1487 1489 1488 1495 1501 1509 1518 1526 1534 1538 1542 1549 1552 1555 1560 1563 1566 1569 1572 1574 1575 1577 1580 1581
1503 1498 1493 1492 1491 1490 1490 1490 1490 1488 1485 1488 1490 1492 1493 1498 1500 1503 1510 1514 1520 1528 1535 1540 1544 1546 1549 1553 1556 1562 1565 1567 1571 1573 1576 1575 1576 1577
1513 1509 1507 1506 1505 1506 1506 1505 1504 1504 1505 1504 1503 1505 1507 1511 1515 1520 1522 1523 1527 1537 1541 1547 1552 1550 1552 1556 1561 1565 1568 1571 1573 1576 1577 1577 1579 1580
1524 1525 1525 1525 1523 1522 1520 1519 1519 1519 1521 1520 1520 1521 1523 1525 1526 1528 1531 1534 1540 1547 1550 1556 1561 1563 1564 1563 1570 1575 1578 1576 1578 1579 1578 1580 1580 1580
1539 1539 1539 1539 1541 1538 1537 1536 1535 1535 1533 1535 1535 1537 1539 1539 1540 1541 1544 1546 1548 1555 1560 1563 1565 1566 1569 1571 1572 1576 1578 1580 1584 1581 1581 1582 1582 1584
1553 1553 1552 1552 1551 1551 1551 1550 1550 1551 1551 1552 1552 1551 1551 1551 1550 1552 1555 1557 1561 1565 1566 1569 1572 1575 1576 1577 1578 1582 1585 1588 1587 1586 1585 1586 1586 1587
1563 1563 1562 1563 1563 1564 1565 1564 1564 1563 1564 1564 1565 1563 1563 1563 1563 1566 1568 1569 1571 1573 1575 1577 1580 1581 1584 1586 1585 1586 1588 1590 1590 1590 1590 1589 1589 1589
1573 1573 1573 1572 1573 1573 1572 1572 1573 1574 1574 1574 1574 1574 1574 1575 1576 1577 1577 1578 1580 1582 1584 1585 1588 1590 1590 1591 1590 1591 1591 1591 1592 1591 1591 1590 1590 1589
Wind_Speed
18 17 17 18 21 23 23 23 18 8 16 19 25 24 24 40 35 66 70 73 61 59 55 50 50 53 51 47 44 43 40 40 38 36 33 31 28 26
16 14 13 13 17 22 25 25 25 19 9 24 21 27 36 39 42 65 73 64 55 54 50 48 48 51 50 46 44 42 41 39 37 36 33 30 27 25
14 16 10 9 14 18 20 22 26 23 8 21 20 33 37 38 48 68 74 62 57 50 46 45 45 49 49 46 43 41 39 38 36 35 33 30 27 25
18 24 11 7 13 17 20 24 21 18 12 23 42 33 43 57 51 65 62 51 53 48 43 40 42 46 47 44 41 39 37 36 35 34 32 29 27 25
23 29 19 13 18 21 22 18 17 16 24 23 31 51 48 58 50 46 66 59 53 46 40 35 38 42 45 42 38 36 34 33 32 32 30 29 27 25
29 33 30 19 20 19 20 20 20 20 28 42 39 43 46 53 49 60 55 56 52 45 38 35 36 40 41 38 35 34 31 30 30 29 29 27 25 23
33 36 35 26 19 19 24 27 23 40 46 46 49 48 49 41 42 47 51 54 48 45 42 38 38 40 36 33 32 31 30 29 27 25 25 24 24 22
36 38 32 25 27 22 19 30 32 43 46 49 47 50 50 44 38 50 50 51 46 42 41 40 35 34 34 31 32 31 30 28 25 23 22 22 22 20
36 38 40 39 32 28 25 29 32 36 39 42 49 48 48 37 47 50 50 43 42 44 44 39 39 34 34 29 30 28 28 27 26 24 21 18 16 15
39 39 42 41 41 34 31 32 38 38 37 39 39 45 38 29 36 48 52 46 48 43 44 44 39 38 33 28 30 26 22 23 23 22 20 19 16 15
42 39 41 40 35 37 33 35 34 34 34 33 29 31 35 37 31 38 45 49 48 45 46 45 39 39 33 33 31 28 26 25 24 23 22 20 19 18
47 44 40 38 35 32 32 33 29 26 28 31 26 27 34 34 31 33 40 50 52 47 46 42 42 39 33 31 31 30 28 26 25 25 24 23 22 23
51 53 48 41 38 35 35 35 32 25 25 25 25 25 36 39 43 44 45 50 51 41 47 47 45 40 31 32 31 30 30 30 28 27 25 25 25 23
51 52 54 53 50 47 42 34 31 29 28 31 34 31 26 38 41 41 43 50 48 45 45 43 44 41 38 37 31 28 28 29 28 28 27 27 27 27
47 47 49 52 52 56 56 51 43 43 44 40 40 40 36 36 40 42 47 48 44 39 43 39 38 36 32 36 33 26 26 24 24 25 27 27 25 27
45 46 47 50 51 52 53 52 53 53 50 48 45 38 33 35 40 40 37 45 40 33 34 34 36 32 31 31 30 27 24 18 19 20 21 22 22 18
47 50 53 50 50 49 51 51 51 52 56 53 48 47 46 36 30 32 30 32 40 32 27 27 31 34 32 31 30 25 22 23 20 19 16 18 17 15
54 56 55 54 53 50 49 47 48 49 48 49 50 49 49 47 47 43 40 38 32 31 31 24 18 28 29 30 31 28 26 24 22 18 17 14 16 15
53 53 54 53 51 50 50 49 48 44 41 44 45 45 45 44 44 43 41 40 38 35 32 27 25 21 27 35 29 24 23 20 17 15 13 11 11 13
46 46 47 48 48 49 49 48 47 46 46 45 44 41 39 39 39 39 36 35 34 30 27 22 17 19 25 28 28 22 16 16 13 13 12 11 11 12
38 39 40 41 42 42 43 44 44 44 43 43 43 43 42 41 41 39 35 32 30 28 27 25 24 20 20 19 22 21 17 15 13 13 15 14 14 12
30 31 33 34 34 34 34 36 37 39 39 39 38 39 39 38 39 38 35 35 34 33 33 30 27 25 23 22 25 23 20 18 15 12 9 8 7 6
23 24 25 25 26 26 28 29 30 31 31 32 32 32 32 33 31 31 30 30 29 28 26 25 23 20 20 18 18 17 14 12 11 9 7 6 5 4
Wind_Direction
302 288 274 261 244 235 228 224 220 228 208 193 180 184 190 177 173 161 166 165 175 174 176 177 176 173 173 172 172 170 169 168 168 165 165 164 164 162
320 307 294 268 242 226 222 218 212 206 216 166 172 173 170 163 158 167 167 172 175 175 176 175 176 172 173 173 172 172 170 170 169 168 167 167 166 165
356 359 360 230 214 206 202 202 203 204 214 155 163 167 156 150 155 165 171 171 171 172 175 173 175 175 173 175 173 173 172 172 172 171 170 171 170 169
26 29 43 177 176 172 172 177 184 187 166 156 148 155 152 152 148 160 163 169 171 173 172 173 175 176 174 175 174 173 173 173 175 175 175 175 176 175
34 43 62 140 145 148 153 165 167 162 150 154 144 130 154 153 148 149 164 172 170 170 171 170 174 175 174 174 174 173 175 176 177 178 179 180 181 181
52 65 72 110 123 131 131 130 132 127 139 127 136 139 135 142 149 145 155 165 163 168 167 167 170 172 175 173 175 175 178 179 180 181 183 185 187 187
70 76 81 92 106 121 128 121 120 122 121 119 117 136 148 153 146 150 154 160 162 166 166 163 165 169 171 173 176 180 180 182 183 184 187 189 191 193
69 79 93 100 104 124 126 126 125 130 121 125 130 129 136 149 162 159 162 159 147 170 157 159 160 163 167 176 181 184 185 186 186 187 190 194 196 198
73 80 89 93 105 121 125 114 129 120 132 133 141 138 147 152 148 158 157 150 149 165 159 150 162 160 168 174 183 185 187 188 190 193 196 198 194 192
69 78 86 92 96 109 118 126 115 123 123 128 135 147 153 160 153 155 156 156 158 158 163 150 165 163 170 173 176 178 174 173 177 180 179 179 178 182
73 77 86 92 98 106 121 121 124 104 114 128 127 151 160 161 164 161 165 160 150 152 167 159 164 167 170 170 172 181 181 180 180 182 180 179 179 187
77 78 80 86 95 99 108 116 126 103 116 125 119 111 162 158 166 171 170 162 157 156 170 164 167 170 162 171 175 179 181 184 184 184 182 182 186 200
76 79 78 78 84 89 94 96 101 108 120 129 128 114 144 158 154 160 169 174 166 160 172 172 172 173 167 154 173 181 186 189 193 193 192 194 199 207
76 81 86 81 81 82 82 88 94 98 108 121 131 136 138 145 153 160 169 171 174 172 175 181 175 180 175 167 165 177 188 195 200 202 203 208 210 218
77 80 85 86 85 84 83 84 88 93 97 103 105 111 121 130 142 153 163 172 172 174 173 179 186 183 190 181 167 166 178 184 195 206 210 216 220 227
80 81 81 82 82 85 88 87 86 85 87 91 95 98 105 121 131 136 151 163 172 167 175 177 185 188 187 186 182 170 169 159 170 178 184 193 196 191
80 80 80 79 81 82 84 86 88 93 94 93 93 94 93 93 110 126 143 141 151 135 150 165 180 185 178 167 167 163 163 161 160 160 170 169 164 164
78 76 75 75 76 78 79 80 83 85 86 90 94 95 94 94 97 99 104 107 108 105 106 106 129 149 152 143 138 127 130 130 133 133 134 142 131 123
77 78 79 77 77 78 79 80 81 83 87 89 90 90 92 97 101 99 97 97 98 101 101 109 119 123 115 104 109 110 112 110 114 119 113 118 116 111
76 76 76 77 79 79 80 81 84 85 86 87 89 91 94 97 97 98 100 102 105 111 114 117 119 130 138 133 125 116 119 125 134 125 122 113 100 79
77 78 78 78 78 79 81 82 83 83 84 86 88 90 91 91 91 94 98 103 108 110 109 108 106 112 116 120 114 110 110 99 93 105 107 106 102 97
79 79 80 81 82 82 82 84 85 85 85 85 86 89 90 90 93 96 97 100 100 101 101 101 102 105 108 109 109 110 110 109 108 106 107 106 113 114
82 82 81 81 82 84 84 83 83 85 86 87 89 88 90 93 95 97 98 99 100 102 103 107 111 113 112 111 113 116 117 115 113 111 111 106 98 84